Погода Кривой Рог

Погода Кривой Рог : погода сейчас, прогноз погоды и архив. Всё, что Вы хотите узнать о погоде Кривой Рог!

Поиск расширенной информации на нашем сайте:

Другие новости

Новости СМИ2

Главная страница сайта

Новости сайта

03.07.2017

Напоминаем, что на нашем специализированном сайте Метеоцентр.Азия вы можете получить высокодетализированные автоматические прогнозы погоды по пунктам России, СНГ и мира в авиационном формате (включающие направление и скорость ветра, видимость, явления погоды, количество и форму облачности, нижнюю и верхнюю границу облачности).


Погода Кривой Рог - сегодня

Время (UTC), дата Ветер
(°,м/с) 
Видим.   Явления Облачность Т
(°С)
Тd
(°С)
f(%) Тe
(°С)
Pmin
(гПа)
dP
(гПа)
Po
(мм)
O2
(г/м3)
Тmin Tmax R s Состояние
почвы
21 17.08.17 030 (СВ) 10 км    ясно 
+23.5 +9 40 +24  1016.1  0.1  751  277           
00 18.08.17 040 (СВ) 10 км    3/0 верхняя 
[Ci fib]
+21.7 +8.9 44 +22  1015.8  -0.4  751  279           
03 18.08.17 030 (СВ) 10 км    4/0 верхняя 
[Ci fib]
+20.6 +7.6 43 +21  1015.9  751  280           
06 18.08.17 050 (СВ) 10 км    8/0 средняя, верхняя 
[Ac trans|Ci fib]
+24.8 +9.2 37 +25  1016.5  0.8  752  276  +20.6         
09 18.08.17 070 (В) 10 км    10/3 1000 м средняя, верхняя 
[Cu hum|Ac trans|Ci fib]
+28.4 +10.6 33 +30  1016.9  0.6  752  273           
12 18.08.17 070 (В) 10 км    8/3 1000 м верхняя 
[Cu hum|Ci fib]
+34 +8.2 20 +34  1015.6  -1  751  268           
15 18.08.17 080 (В) 10 км    5/3 1000 м верхняя 
[Cu hum|Ci fib]
+33.1 +5.5 18 +33  1015.4  -0.3  751  269           
18 18.08.17 030 (СВ) 10 км    3/0 верхняя 
[Ci fib]
+25.6 +2.9 23 +26  1016.9  1.2  752  277           
21 18.08.17 040 (СВ) 10 км    ясно 
+22.5 +4.4 31 +23  1017.2  0.1  752  279           
00 19.08.17 050 (СВ) 10 км    ясно 
+20.2 +6.5 41 +20  1017.1  -0.2  752  281           
03 19.08.17 050 (СВ) 10 км    3/0 верхняя 
[Ci fib]
+20 +6.8 42 +20  1017.7  0.6  752  281           
06 19.08.17 050 (СВ) 10 км    ясно 
+25.2 +8.2 34 +25  1018.1  0.6  753  276  +20         
09 19.08.17 070 (В) 10 км    ясно 
+31.8 +8.8 24 +32  1017.8  753  270           
12 19.08.17 120 (ЮВ) 10 км    3/3 1000 м 
[Cu hum]
+34.6 +4.5 15 +35  1016.9  -0.7  752  268           
15 19.08.17 070 (В) 10 км    3/3 1000 м 
[Cu med, cong]
+32.9 +4.7 17 +33  1016.5  -0.5  752  270           
18 19.08.17 030 (СВ) 10 км    3/0 средняя 
[Ac trans]
+27 +5.8 26 +27  1017.5  0.7  753  275    +34.7       
21 19.08.17 040 (СВ) 10 км    ясно 
+24.6 +6.7 32 +25  1017.8  0.2  753  277           
00 20.08.17 060 (СВ) 10 км    ясно 
+23.4 +7 35 +23  1017.9  753  278           
03 20.08.17 050 (СВ) 10 км    3/0 верхняя 
[Ci fib]
+21 +7.4 41 +21  1017.6  -0.4  752  280           
06 20.08.17 060 (СВ) 10 км    ясно 
+25.9 +8.8 34 +26  1017.4  0.1  752  275  +21         
09 20.08.17 070 (В) 10 км    ясно 
+34 +7.9 20 +34  1016  -1  752  268           
12 20.08.17 080 (В) 10 км    3/3 1000 м 
[Cu hum]
+34.7 +2.5 13 +35  1014.7  -1.3  751  268           
15 20.08.17 080 (В) 10 км    3/3 1000 м 
[Cu hum]
+33.9 +2.9 14 +34  1013.6  -1.1  750  268           
18 20.08.17 040 (СВ) 10 км    3/0 средняя 
[Ac trans]
+25.2 +3.2 24 +25  1014.2  0.2  750  276           
21 20.08.17 050 (СВ) 10 км    ясно 
+23.4 +4.8 30 +23  1013.9  -0.4  750  278           
Время (UTC), дата Ветер
(°,м/с) 
Видим.   Явления Облачность Т
(°С)
Тd
(°С)
f(%) Тe
(°С)
Pmin
(гПа)
dP
(гПа)
Po
(мм)
O2
(г/м3)
Тmin Tmax R s Состояние
почвы

Для получения пояснительной информации подведите курсор к названию столбца.

ПОГОДА Кривой Рог - архив

Всё, что Вы хотите узнать о погоде Кривой Рог - удобно и подробно!

Выберите нужную дату (начиная с 1 января 2015* года) и нажмите кнопку "Найти".
Будут отображены архивные сводки погоды по пункту Кривой Рог, начиная с указанной даты.


Отображать данные в формате CSV (для использования в таблицах Excel)


Внимание! Наш архив погоды предназначен исключительно для личного некоммерческого использования в познавательных целях. Если Вам необходимы официальные справки о состоянии погоды (для производственных, юридических, коммерческих и т.п. целей), обращайтесь в органы Росгидромета.

*Примечание: данная дата относится к архиву по метеостанциям СССР (Россия, СНГ, Балтия).
Архив по метеостанциям Зарубежной Европы и Азии (кроме Китая) хранится 10 дней, по другим регионам земного шара (Китай, Африка, Америка, Австралия, Океания) - 1 день.

Кривой Рог - район местоположения метеостанции


Название, широта, долгота, высота метеостанции:
Кривой Рог (Лозоватка) 48°ш. 33.2°д. 124 м над ур. моря [Украина]

Дополнительная информация

В oтличие oт бoльшинства пoгoдных сайтoв мы публикуем пoдрoбную метеoинфoрмацию в детальнoм прoфессиoнальнoм фoрмате.

Характеристики температуры и влажнoсти вoздуха измеряются на высoте 2 м в тени вдали oт зданий и деревьев.
Скoрoсть ветра измеряется на высoте 10 м (на урoвне рoста челoвека скoрoсть ветра ниже в 1.5-2 раза). Если метеoстанция нахoдится в гoрoде или в лесу, тo скoрoсть ветра занижена на 2-4 м/с пo сравнению с oткрытым местoм. Скoрoсть ветра над акватoриями крупных рек и oзёр, а также на вершинах хoлмoв на 2-5 м/с выше, чем в oбычных услoвиях.
Атмoсфернoе давление в разных тoчках местнoсти мoжет значительнo oтличаться oт давления на метеoстанции, в зависимoсти oт услoвий рельефа (при пoдъёме на 10 м давление пoнижается примернo на 1 мм рт.ст.).